{"data":{"norad_id":59567,"intl_designator":"2024-076D","name":"STARLINK-31689","alt_names":[],"object_type":"PAYLOAD","status":"ACTIVE","operator":null,"country":"US","launch_date":"2024-04-23","launch_site_code":"AFETR","launch_vehicle":null,"mission":null,"orbit_class":"UNKNOWN","rcs_meters":null,"size_class":null,"mass_kg":null,"dimensions":null,"purposes":["comms"],"wikipedia_slug":null,"has_3d_model":false,"image_url":null,"decayed_at":null,"tle_current":{"epoch":"2026-09-20T13:23:34.514304Z","epoch_age_seconds":163233,"freshness":"FRESH","line1":"1 59567U 24076D   26263.55803836  .00000826  00000+0  39546-4 0  9994","line2":"2 59567  43.0051 345.1710 0001604 284.9115  75.1559 15.27580615136348","mean_motion":15.27580615,"eccentricity":0.0001604,"inclination_deg":43.0051,"raan_deg":345.171,"arg_perigee_deg":284.9115,"mean_anomaly_deg":75.1559,"bstar":3.9546e-5,"rev_number":13634,"period_min":94.266710762103,"perigee_km":481.9467205546,"apogee_km":484.14778846345,"semimajor_km":6861.184254509,"source":"CELESTRAK","updated_at":"2026-09-22T09:00:49.000714Z"}}}